TimeEST,TemperatureF,Dew PointF,Humidity,Sea Level PressureIn,VisibilityMPH,Wind Direction,Wind SpeedMPH,Gust SpeedMPH,PrecipitationIn,Events,Conditions,WindDirDegrees,DateUTC
12:15 AM,32.0,30.0,92,30.19,10.0,Calm,Calm,-,N/A,,Overcast,0,2013-03-07 05:15:00
12:35 AM,31.5,29.5,92,30.19,10.0,Calm,Calm,-,N/A,,Overcast,0,2013-03-07 05:35:00
12:55 AM,31.5,29.3,92,30.20,10.0,Calm,Calm,-,N/A,,Overcast,0,2013-03-07 05:55:00
1:15 AM,31.8,29.7,92,30.20,10.0,Calm,Calm,-,N/A,,Overcast,0,2013-03-07 06:15:00
1:35 AM,32.0,29.7,91,30.21,10.0,Calm,Calm,-,N/A,,Overcast,0,2013-03-07 06:35:00
1:54 AM,32.4,29.7,90,30.21,10.0,Calm,Calm,-,N/A,,Overcast,0,2013-03-07 06:54:00
2:15 AM,32.4,29.3,88,30.21,7.0,NW,3.5,-,N/A,Snow,Light Snow,320,2013-03-07 07:15:00
2:35 AM,32.4,29.3,88,30.21,7.0,NW,5.8,-,N/A,,Overcast,320,2013-03-07 07:35:00
2:54 AM,32.0,29.3,90,30.21,7.0,NW,5.8,-,N/A,Snow,Light Snow,320,2013-03-07 07:54:00
3:15 AM,32.2,29.3,89,30.21,10.0,NNW,4.6,-,N/A,,Overcast,330,2013-03-07 08:15:00
3:35 AM,32.0,28.4,87,30.22,10.0,NW,8.1,-,N/A,,Overcast,310,2013-03-07 08:35:00
3:54 AM,31.8,27.3,83,30.23,10.0,NW,9.2,-,N/A,,Overcast,310,2013-03-07 08:54:00
4:15 AM,31.1,26.4,83,30.23,10.0,NW,6.9,-,N/A,,Overcast,310,2013-03-07 09:15:00
4:35 AM,30.2,25.7,83,30.24,10.0,NW,8.1,-,N/A,,Overcast,310,2013-03-07 09:35:00
4:54 AM,29.8,24.8,81,30.25,5.0,NW,6.9,-,N/A,Snow,Light Snow,310,2013-03-07 09:54:00
5:15 AM,29.3,24.4,82,30.26,10.0,NNW,6.9,-,N/A,Snow,Light Snow,330,2013-03-07 10:15:00
5:35 AM,29.3,23.0,77,30.26,10.0,NW,9.2,-,N/A,,Overcast,320,2013-03-07 10:35:00
5:54 AM,29.1,22.8,77,30.26,10.0,NW,5.8,-,N/A,,Overcast,310,2013-03-07 10:54:00
6:15 AM,28.9,22.6,77,30.27,10.0,NW,4.6,-,N/A,,Overcast,320,2013-03-07 11:15:00
6:35 AM,28.6,23.0,80,30.27,10.0,NW,9.2,-,N/A,,Overcast,320,2013-03-07 11:35:00
6:54 AM,28.4,23.2,81,30.28,10.0,NW,5.8,-,N/A,,Overcast,310,2013-03-07 11:54:00
7:15 AM,28.4,23.2,81,30.28,10.0,NNW,6.9,-,N/A,,Overcast,330,2013-03-07 12:15:00
7:35 AM,28.4,23.0,80,30.29,10.0,NW,5.8,-,N/A,,Overcast,320,2013-03-07 12:35:00
7:54 AM,28.4,22.6,79,30.30,10.0,NNW,8.1,-,N/A,,Overcast,330,2013-03-07 12:54:00
8:15 AM,28.9,22.3,76,30.31,10.0,NW,9.2,-,N/A,,Overcast,320,2013-03-07 13:15:00
8:35 AM,29.1,22.1,75,30.31,10.0,NNW,9.2,-,N/A,,Overcast,330,2013-03-07 13:35:00
8:54 AM,28.9,21.0,72,30.32,10.0,NW,11.5,16.1,N/A,,Overcast,320,2013-03-07 13:54:00
9:15 AM,29.1,20.8,71,30.33,10.0,NNW,6.9,-,N/A,,Mostly Cloudy,330,2013-03-07 14:15:00
9:34 AM,29.8,20.8,69,30.33,10.0,NNW,4.6,-,N/A,,Mostly Cloudy,340,2013-03-07 14:34:00
9:55 AM,30.2,21.2,69,30.33,10.0,NNW,4.6,-,N/A,,Scattered Clouds,330,2013-03-07 14:55:00
10:15 AM,30.7,20.5,66,30.34,10.0,NNW,6.9,-,N/A,,Clear,330,2013-03-07 15:15:00
10:34 AM,31.1,20.1,64,30.34,10.0,North,4.6,-,N/A,,Mostly Cloudy,350,2013-03-07 15:34:00
10:55 AM,31.8,19.6,61,30.33,10.0,NW,9.2,-,N/A,,Overcast,320,2013-03-07 15:55:00
11:15 AM,31.6,19.4,61,30.34,10.0,NNW,6.9,-,N/A,,Overcast,340,2013-03-07 16:15:00
11:34 AM,32.0,19.4,60,30.34,10.0,NW,5.8,-,N/A,,Overcast,310,2013-03-07 16:34:00
11:55 AM,32.0,19.0,59,30.34,10.0,NNW,8.1,-,N/A,,Overcast,330,2013-03-07 16:55:00
12:15 PM,31.8,18.1,57,30.34,10.0,North,8.1,16.1,N/A,,Overcast,350,2013-03-07 17:15:00
12:34 PM,32.0,18.7,58,30.34,10.0,NNW,9.2,-,N/A,,Overcast,330,2013-03-07 17:34:00
12:55 PM,32.0,18.5,58,30.34,10.0,NNW,9.2,-,N/A,,Overcast,340,2013-03-07 17:55:00
1:15 PM,32.0,18.7,58,30.33,10.0,NNW,6.9,-,N/A,,Overcast,340,2013-03-07 18:15:00
1:34 PM,32.2,18.5,57,30.33,10.0,NW,9.2,-,N/A,,Overcast,320,2013-03-07 18:34:00
1:55 PM,32.9,19.6,58,30.33,10.0,WNW,4.6,-,N/A,,Overcast,290,2013-03-07 18:55:00
2:15 PM,32.5,18.3,56,30.33,10.0,NNW,8.1,-,N/A,,Overcast,330,2013-03-07 19:15:00
2:34 PM,33.1,18.7,56,30.33,10.0,West,9.2,-,N/A,,Overcast,280,2013-03-07 19:34:00
2:55 PM,33.4,18.7,55,30.32,10.0,West,5.8,-,N/A,,Overcast,270,2013-03-07 19:55:00
3:15 PM,34.0,18.5,53,30.33,10.0,NW,6.9,-,N/A,,Overcast,320,2013-03-07 20:15:00
3:34 PM,33.1,18.5,55,30.33,10.0,NNW,3.5,-,N/A,,Overcast,330,2013-03-07 20:34:00
3:55 PM,33.8,18.1,53,30.34,10.0,West,9.2,-,N/A,,Overcast,280,2013-03-07 20:55:00
4:15 PM,34.0,18.3,53,30.33,10.0,NW,5.8,-,N/A,,Overcast,320,2013-03-07 21:15:00
4:34 PM,34.2,18.3,52,30.33,10.0,West,6.9,-,N/A,,Overcast,280,2013-03-07 21:34:00
4:55 PM,34.3,18.3,52,30.33,10.0,WNW,6.9,-,N/A,,Overcast,290,2013-03-07 21:55:00
5:15 PM,34.5,17.4,50,30.33,10.0,WNW,5.8,-,N/A,,Mostly Cloudy,290,2013-03-07 22:15:00
5:34 PM,34.0,17.6,51,30.34,10.0,West,4.6,-,N/A,,Scattered Clouds,280,2013-03-07 22:34:00
5:55 PM,33.4,17.6,52,30.34,10.0,Calm,Calm,-,N/A,,Clear,0,2013-03-07 22:55:00
6:15 PM,32.5,18.1,55,30.35,10.0,North,5.8,-,N/A,,Clear,10,2013-03-07 23:15:00
6:35 PM,31.1,19.4,62,30.36,10.0,NNE,5.8,-,N/A,,Clear,20,2013-03-07 23:35:00
6:55 PM,30.2,19.4,64,30.37,10.0,NNE,4.6,-,N/A,,Clear,20,2013-03-07 23:55:00
8:35 PM,28.2,18.1,66,30.39,10.0,Calm,Calm,-,N/A,,Clear,0,2013-03-08 01:35:00
8:55 PM,27.0,18.3,70,30.39,10.0,Calm,Calm,-,N/A,,Clear,0,2013-03-08 01:55:00
9:14 PM,26.6,18.3,71,30.39,10.0,Calm,Calm,-,N/A,,Clear,0,2013-03-08 02:14:00
9:35 PM,25.3,18.3,75,30.39,10.0,Calm,Calm,-,N/A,,Clear,0,2013-03-08 02:35:00
9:55 PM,24.6,18.1,76,30.40,10.0,Calm,Calm,-,N/A,,Clear,0,2013-03-08 02:55:00
10:14 PM,25.7,17.4,71,30.39,10.0,Calm,Calm,-,N/A,,Clear,0,2013-03-08 03:14:00
10:35 PM,25.3,16.7,70,30.40,10.0,Calm,Calm,-,N/A,,Clear,0,2013-03-08 03:35:00
10:55 PM,24.6,16.3,71,30.40,10.0,Calm,Calm,-,N/A,,Clear,0,2013-03-08 03:55:00
11:14 PM,24.6,15.8,69,30.40,10.0,Calm,Calm,-,N/A,,Clear,0,2013-03-08 04:14:00
11:35 PM,24.1,15.8,71,30.40,10.0,Calm,Calm,-,N/A,,Clear,0,2013-03-08 04:35:00
11:55 PM,23.4,15.8,73,30.40,10.0,Calm,Calm,-,N/A,,Clear,0,2013-03-08 04:55:00